Satellite-Ground Cal/Val Site Overpasses Predictions

Prediction of Satellite NPP Overpassing Cal/Val Site: Antarctic Dome C

Ground Cal/Val Site Location: Latitude: -75.10, Longitude: 123.35; Satellite-Ground Site NADIR distance within 100 km.

Table of predicted overpasses for the next 14.0 days since TLE Epoch: 1/10/2014
Interval Starting Time Ending Time Minimum Distance Time Minimum Distance (km)
1 01/10/2014 15:03:53 01/10/2014 15:04:15 01/10/2014 15:04:04 64.45
2 01/11/2014 14:45:03 01/11/2014 14:45:29 01/11/2014 14:45:16 44.74
3 01/12/2014 07:46:44 01/12/2014 07:47:05 01/12/2014 07:46:55 67.02
4 01/13/2014 07:27:54 01/13/2014 07:28:20 01/13/2014 07:28:07 40.82
5 01/16/2014 14:51:22 01/16/2014 14:51:51 01/16/2014 14:51:37 9.58
6 01/18/2014 07:34:14 01/18/2014 07:34:43 01/18/2014 07:34:29 4.86
7 01/21/2014 14:57:44 01/21/2014 14:58:12 01/21/2014 14:57:58 27.11
8 01/22/2014 14:39:01 01/22/2014 14:39:19 01/22/2014 14:39:10 79.95
9 01/23/2014 07:40:35 01/23/2014 07:41:02 01/23/2014 07:40:49 31.62
